Walnut Ridge, AR

6:11 AM CST on December 06, 2016 (GMT -0600)
Walnut Ridge Regional

Weather History for KARG - March, 2014

Change the Weather History Date:

Friday, March 7, 2014

  Actual Average Record
Temperature  
Mean Temperature 32 °F -  
Max Temperature 42 °F 52 °F 73 °F (2009)
Min Temperature 23 °F 34 °F 21 °F (2015)
Degree Days  
Heating Degree Days 32    
Moisture  
Dew Point 26 °F    
Average Humidity 77    
Maximum Humidity 87    
Minimum Humidity 61    
Precipitation  
Precipitation 0.03 in - - ()
Sea Level Pressure  
Sea Level Pressure 30.04 in    
Wind  
Wind Speed 4 mph (South)    
Max Wind Speed 8 mph    
Max Gust Speed -    
Visibility 7 miles    
Events      
Averages and records for this station are not official NWS values.
T = Trace of Precipitation, MM = Missing Value Source: NWS Daily Summary

Daily Weather History Graph

Daily Weather History Graph

Search for Another Location

Airport or City:

Trip Planner

Search our weather history database for the weather conditions in past years. The results will help you decide how hot, cold, wet, or windy it might be!

Date:

Astronomy

Mar. 07, 2014 Rise Set
Actual Time 6:25 AM CST 6:04 PM CST
Civil Twilight 6:00 AM CST 6:29 PM CST
Nautical Twilight 5:30 AM CST 6:59 PM CST
Astronomical Twilight 5:00 AM CST 7:29 PM CST
Moon 10:29 AM CST (3/7) No Moon Set
Length of Visible Light 12h 29m
Length of Day
11h 38m
Waxing Crescent, 42% of the Moon is Illuminated
Mar 7
Waxing Crescent
Mar 8
First Quarter
Mar 16
Full
Mar 23
Last Quarter
Mar 30
New

Hourly Weather History & Observations

Time (CST) Temp. Windchill Dew Point Humidity Pressure Visibility Wind Dir Wind Speed Gust Speed Precip Events Conditions
12:15 AM 26.6 °F 19.1 °F 21.2 °F 80% 30.08 in 6.0 mi NW 6.9 mph - N/A   Clear
12:35 AM 26.6 °F 20.0 °F 21.2 °F 80% 30.08 in 7.0 mi NW 5.8 mph - 0.01 in   Clear
12:55 AM 26.6 °F 22.6 °F 21.2 °F 80% 30.08 in 6.0 mi NW 3.5 mph - 0.01 in   Clear
1:15 AM 26.6 °F 22.6 °F 21.2 °F 80% 30.09 in 7.0 mi NW 3.5 mph - N/A   Clear
1:35 AM 26.6 °F 21.2 °F 21.2 °F 80% 30.08 in 6.0 mi WNW 4.6 mph - N/A   Clear
1:55 AM 24.8 °F 20.5 °F 19.4 °F 80% 30.08 in 6.0 mi WNW 3.5 mph - N/A   Clear
2:15 AM 26.6 °F - 21.2 °F 80% 30.08 in 5.0 mi Calm Calm - N/A   Clear
2:35 AM 24.8 °F 20.5 °F 21.2 °F 86% 30.07 in 5.0 mi WNW 3.5 mph - N/A   Clear
2:55 AM 24.8 °F - 21.2 °F 86% 30.06 in 5.0 mi Calm Calm - N/A   Clear
3:15 AM 24.8 °F - 21.2 °F 86% 30.06 in 5.0 mi Calm Calm - N/A   Clear
3:35 AM 24.8 °F - 19.4 °F 80% 30.05 in 5.0 mi Calm Calm - N/A   Clear
3:55 AM 24.8 °F - 19.4 °F 80% 30.06 in 4.0 mi Calm Calm - N/A   Clear
4:15 AM 24.8 °F - 21.2 °F 86% 30.06 in 3.0 mi Calm Calm - N/A   Clear
4:35 AM 24.8 °F - 21.2 °F 86% 30.06 in 4.0 mi Calm Calm - 0.01 in   Clear
4:55 AM 24.8 °F - 21.2 °F 86% 30.05 in 3.0 mi Calm Calm - 0.01 in   Clear
5:15 AM 24.8 °F - 21.2 °F 86% 30.05 in 3.0 mi Calm Calm - N/A   Clear
5:35 AM 24.8 °F - 21.2 °F 86% 30.05 in 2.5 mi Calm Calm - N/A   Clear
5:55 AM 24.8 °F - 21.2 °F 86% 30.04 in 3.0 mi Calm Calm - N/A   Clear
6:15 AM 24.8 °F 20.5 °F 19.4 °F 80% 30.05 in 3.0 mi WNW 3.5 mph - N/A   Clear
6:35 AM 23.0 °F 17.0 °F 19.4 °F 86% 30.05 in 2.5 mi WNW 4.6 mph - N/A   Clear
6:55 AM 23.0 °F 17.0 °F 19.4 °F 86% 30.06 in 2.5 mi WNW 4.6 mph - N/A   Clear
7:15 AM 23.0 °F - 19.4 °F 86% 30.07 in 3.0 mi Calm Calm - N/A   Clear
7:35 AM 26.6 °F - 21.2 °F 80% 30.08 in 3.0 mi Calm Calm - N/A   Clear
7:55 AM 28.4 °F - 24.8 °F 86% 30.08 in 3.0 mi Calm Calm - N/A   Clear
8:15 AM 30.2 °F - 24.8 °F 80% 30.08 in 3.0 mi Calm Calm - N/A   Clear
8:35 AM 30.2 °F 26.7 °F 26.6 °F 86% 30.08 in 3.0 mi NE 3.5 mph - N/A   Clear
8:55 AM 33.8 °F - 28.4 °F 81% 30.10 in 4.0 mi Calm Calm - N/A   Clear
9:15 AM 37.4 °F - 28.4 °F 70% 30.09 in 5.0 mi Calm Calm - N/A   Clear
9:35 AM 39.2 °F - 28.4 °F 65% 30.10 in 5.0 mi Calm Calm - N/A   Clear
9:55 AM 33.8 °F - 26.6 °F 75% 30.10 in 8.0 mi Calm Calm - N/A   Clear
10:15 AM 35.6 °F - 26.6 °F 70% 30.09 in 9.0 mi Calm Calm - N/A   Clear
10:35 AM 35.6 °F 32.8 °F 26.6 °F 70% 30.09 in 9.0 mi SSE 3.5 mph - N/A   Clear
10:55 AM 35.6 °F 32.8 °F 26.6 °F 70% 30.09 in 9.0 mi SSE 3.5 mph - N/A   Clear
11:15 AM 37.4 °F 32.8 °F 28.4 °F 70% 30.09 in 9.0 mi SSE 5.8 mph - N/A   Clear
11:35 AM 37.4 °F 32.8 °F 28.4 °F 70% 30.08 in 10.0 mi SE 5.8 mph - N/A   Clear
11:55 AM 39.2 °F 35.0 °F 28.4 °F 65% 30.07 in 10.0 mi SSE 5.8 mph - N/A   Clear
12:15 PM 39.2 °F 35.9 °F 30.2 °F 70% 30.07 in 10.0 mi SSE 4.6 mph - 0.01 in   Clear
12:35 PM 39.2 °F 35.0 °F 28.4 °F 65% 30.06 in 10.0 mi SSE 5.8 mph - 0.01 in   Clear
12:55 PM 39.2 °F 34.2 °F 28.4 °F 65% 30.04 in 10.0 mi SSE 6.9 mph - 0.01 in   Clear
1:15 PM 39.2 °F 35.0 °F 30.2 °F 70% 30.04 in 10.0 mi SSE 5.8 mph - N/A   Clear
1:35 PM 41.0 °F 36.4 °F 30.2 °F 65% 30.03 in 10.0 mi SSE 6.9 mph - N/A   Clear
1:55 PM 41.0 °F 36.4 °F 30.2 °F 65% 30.03 in 10.0 mi South 6.9 mph - N/A   Clear
2:15 PM 41.0 °F 35.8 °F 30.2 °F 65% 30.02 in 10.0 mi SSE 8.1 mph - N/A   Clear
2:35 PM 41.0 °F 36.4 °F 30.2 °F 65% 30.01 in 10.0 mi SSE 6.9 mph - N/A   Clear
2:55 PM 42.8 °F 39.3 °F 30.2 °F 61% 30.01 in 10.0 mi South 5.8 mph - N/A   Clear
3:15 PM 42.8 °F 39.3 °F 30.2 °F 61% 30.00 in 10.0 mi South 5.8 mph - N/A   Clear
3:35 PM 42.8 °F 38.6 °F 30.2 °F 61% 30.00 in 10.0 mi South 6.9 mph - N/A   Clear
3:55 PM 41.0 °F 36.4 °F 30.2 °F 65% 30.00 in 10.0 mi SSW 6.9 mph - N/A   Clear
4:15 PM 39.2 °F 34.2 °F 30.2 °F 70% 30.00 in 10.0 mi SSW 6.9 mph - N/A   Clear
4:35 PM 39.2 °F 34.2 °F 30.2 °F 70% 30.00 in 10.0 mi SSW 6.9 mph - N/A   Clear
4:55 PM 41.0 °F 37.1 °F 32.0 °F 70% 30.00 in 10.0 mi South 5.8 mph - N/A   Clear
5:15 PM 39.2 °F 35.9 °F 32.0 °F 75% 29.99 in 10.0 mi South 4.6 mph - N/A   Clear
5:35 PM 37.4 °F 33.8 °F 30.2 °F 75% 29.98 in 10.0 mi South 4.6 mph - N/A   Clear
5:55 PM 37.4 °F 32.1 °F 30.2 °F 75% 30.00 in 10.0 mi SSW 6.9 mph - N/A   Clear
6:15 PM 37.4 °F 33.8 °F 30.2 °F 75% 29.99 in 10.0 mi South 4.6 mph - N/A   Clear
6:35 PM 37.4 °F 33.8 °F 30.2 °F 75% 29.98 in 10.0 mi SSE 4.6 mph - N/A   Clear
6:55 PM 37.4 °F 33.8 °F 30.2 °F 75% 29.98 in 10.0 mi SSE 4.6 mph - N/A   Clear
7:15 PM 35.6 °F 29.9 °F 30.2 °F 81% 29.98 in 10.0 mi SE 6.9 mph - N/A   Clear
7:35 PM 35.6 °F 29.9 °F 30.2 °F 81% 29.98 in 10.0 mi SE 6.9 mph - N/A   Clear
7:55 PM 35.6 °F 31.7 °F 28.4 °F 75% 29.98 in 9.0 mi ESE 4.6 mph - N/A   Clear
8:15 PM 35.6 °F 31.7 °F 30.2 °F 81% 29.99 in 10.0 mi SE 4.6 mph - N/A   Clear
8:35 PM 35.6 °F 30.7 °F 28.4 °F 75% 29.99 in 9.0 mi NW 5.8 mph - N/A   Clear
8:55 PM 33.8 °F - 28.4 °F 81% 30.00 in 7.0 mi Calm Calm - N/A   Clear
9:15 PM 33.8 °F 30.8 °F 28.4 °F 81% 29.99 in 8.0 mi NW 3.5 mph - N/A   Clear
9:35 PM 33.8 °F 30.8 °F 28.4 °F 81% 30.01 in 7.0 mi NW 3.5 mph - N/A   Clear
9:55 PM 33.8 °F - 28.4 °F 81% 30.00 in 8.0 mi Calm Calm - N/A   Clear
10:15 PM 32.0 °F - 28.4 °F 87% 30.01 in 5.0 mi Calm Calm - N/A   Clear
10:35 PM 33.8 °F 30.8 °F 28.4 °F 81% 30.00 in 6.0 mi NE 3.5 mph - N/A   Clear
10:55 PM 33.8 °F - 28.4 °F 81% 30.00 in 7.0 mi Calm Calm - N/A   Clear
11:15 PM 33.8 °F 29.6 °F 28.4 °F 81% 29.99 in 7.0 mi SE 4.6 mph - N/A   Clear
11:35 PM 33.8 °F 30.8 °F 28.4 °F 81% 30.00 in 6.0 mi SSE 3.5 mph - N/A   Clear
11:55 PM 35.6 °F 31.7 °F 30.2 °F 81% 30.02 in 8.0 mi West 4.6 mph - N/A   Clear